Regional Weather Roundup
Issued by NWS

Home | Current Version | Previous Version | Text Only | Print | Product List | Glossary Off
Versions: 1 2 3 4 5 6 7 8 9 10 11 12 13 14 15 16 17 18 19 20 21 22 23 24 25 26 27

000
ASUS45 KBOU 232207
RWRCO

WEATHER ROUNDUP FOR COLORADO
NATIONAL WEATHER SERVICE DENVER/BOULDER CO
400 PM MDT THU OCT 23 2014

NOTE: "FAIR" INDICATES FEW OR NO CLOUDS BELOW 12000 FEET WITH NO
SIGNIFICANT WEATHER AND/OR OBSTRUCTIONS TO VISIBILITY.

COZ001>005-013-030-031-232300-
...NORTHWEST COLORADO...

CITY           SKY/WX    TMP DP  RH WIND       PRES   REMARKS
CRAIG          MOSUNNY   68  32  26 SW15      30.17F
HAYDEN         MOSUNNY   66  30  26 W13G18    30.19F
MEEKER         SUNNY     67  35  30 S12       30.20F
MOUNT WERNER   NOT AVBL
STEAMBOAT SPGS MOSUNNY   63  32  30 SW6       30.21F
WALDEN         PTSUNNY   55  27  33 SW13G20   30.26F
$$

COZ006>008-011-232300-
...WEST CENTRAL VALLEYS...

CITY           SKY/WX    TMP DP  RH WIND       PRES   REMARKS
GRAND JUNCTION SUNNY     70  37  29 NW6       30.17F
MONTROSE       SUNNY     72  34  24 NW6       30.22F
EAGLE          MOSUNNY   66  30  26 W15G24    30.24F
RIFLE          SUNNY     68  37  32 SW7G16    30.19F
DELTA          SUNNY     75  33  21 CALM      30.19S
NUCLA          SUNNY     70  32  24 NW5       30.26F
$$

COZ017>023-064>068-232300-
...SOUTHWEST COLORADO...

CITY           SKY/WX    TMP DP  RH WIND       PRES   REMARKS
DURANGO        SUNNY     66  37  34 SW8       30.27F
CORTEZ         SUNNY     71  33  24 NW6       30.25S
PAGOSA SPRINGS SUNNY     65  28  25 SW5       30.32S
TELLURIDE      SUNNY     60  30  32 W12G18    30.40F
WOLF CREEK PAS SUNNY     45  30  57 S15         N/A
$$

COZ009-010-012-014-032>034-037-058>063-232300-
...CENTRAL COLORADO...

CITY           SKY/WX    TMP DP  RH WIND       PRES   REMARKS
ASPEN          SUNNY     63  33  32 N8        30.29S
BUENA VISTA    SUNNY     65  26  22 W12G21    30.28R
COPPER MTN     MOSUNNY   46  21  36 W25G32    30.51S
BERTHOUD PASS  FAIR      36  32  87 W21G29    30.52R
COTTONWOOD PAS SUNNY     55  25  30 N5        30.39S
GUNNISON       SUNNY     63  28  27 SW10G16   30.32F
KREMMLING      MOSUNNY   64  28  25 W15         N/A
LEADVILLE      SUNNY     53  21  28 NW13      30.39S
MONARCH PASS   SUNNY     43  28  56 SW23G30   30.62S
SALIDA         SUNNY     68  29  23 W14G21    30.33S
SUNLIGHT       SUNNY     52  32  46 CALM      30.48S
WILKERSON PASS NOT AVBL
$$

COZ069>075-232300-
...SAN LUIS VALLEY/SANGRE DE CRISTO MOUNTAINS...

CITY           SKY/WX    TMP DP  RH WIND       PRES   REMARKS
ALAMOSA        SUNNY     66  26  22 VRB5      30.28S
LA VETA PASS   SUNNY     54  28  37 S12G18    30.41S
SAGUACHE       SUNNY     64  30  27 NW9       30.30S
$$

COZ035-036-038>040-232300-
...NORTHERN COLORADO FRONT RANGE...

CITY           SKY/WX    TMP DP  RH WIND       PRES   REMARKS
DENVER INTL AP PTSUNNY   74  27  17 CALM      30.10F
DMNS CITY PARK   N/A     72  28  19 S2G12     30.10F
AURORA         PTSUNNY   71  28  19 CALM      30.13S
FRONT RANGE AP PTSUNNY   73  30  20 W9        30.12S
ERIE MUNI ARPT MOSUNNY   74  29  19 W5        30.08S
BOULDER MUN AP MOSUNNY   73  28  19 W8G18     30.08F
CENTENNIAL     PTSUNNY   72  29  20 CALM      30.13F
BROOMFIELD     NOT AVBL
FORT COLLINS   MOSUNNY   73  34  23 S6        30.08S
LONGMONT       MOSUNNY   75  28  17 SW10G17   30.08F
$$

COZ041-046-047-076>085-087-088-232300-
...PIKES PEAK/PALMER DIVIDE AND SOUTHERN FOOTHILLS...

CITY           SKY/WX    TMP DP  RH WIND       PRES   REMARKS
COLO. SPRINGS  PTSUNNY   70  28  21 S6        30.18S
A. F. ACADEMY  MOSUNNY   68  29  22 S9        30.18S
ELLICOTT       NOT AVBL
FALCON         MOSUNNY   68  26  20 S10       30.22S
FORT CARSON    SUNNY     71  28  20 S7        30.15F
LIMON          MOSUNNY   72  27  18 VRB3      30.12F
MONUMENT HILL  PTSUNNY   66  27  22 CALM      30.20S
TRINIDAD       SUNNY     74  27  17 E5        30.14F
$$

COZ042>045-048>051-090-091-232300-
...NORTHEAST COLORADO...

CITY           SKY/WX    TMP DP  RH WIND       PRES   REMARKS
GREELEY ARPT   PTSUNNY   73  30  20 SW6       30.07F
AKRON          PTSUNNY   70  28  21 SW8       30.07F
BURLINGTON     MOSUNNY   74  37  26 SW8       30.09S
WRAY           MOSUNNY   80  35  20 SW8       30.03S
STERLING       PTSUNNY   77  37  24 SW8       30.03F
HOLYOKE        MOSUNNY   79  36  21 SW8       30.02F
FORT MORGAN    PTSUNNY   74  26  16 SW8       30.07S
$$

COZ086-089-092>099-232300-
...SOUTHEAST COLORADO...

CITY           SKY/WX    TMP DP  RH WIND       PRES   REMARKS
PUEBLO         SUNNY     76  27  16 SE6       30.09S
LA JUNTA       SUNNY     77  32  19 N3        30.09R
LAMAR          SUNNY     77  41  27 SW3       30.05R
SPRINGFIELD      N/A     74  47  38 CALM      30.09S
$$



USA.gov is the U.S. government's official web portal to all federal, state and local government web resources and services.